[[{"header":{"parameterUnit":"m.s-1","parameterCategory":1,"la1":30.2991,"la2":30.254,"lo1":-89.0895,"lo2":-89.0444,"dy":0.0017,"dx":0.0017,"nx":28,"ny":28,"refTime":"2025-03-24T21:00:00:Z","depth":0,"parameterNumber":2,"parameterNumberName":"U-component_of_WINDS"},"data":[0,0,0,0,0,0,0,0,0,0,0,0,0,0,0,0,0,0,0,0,0,0,0,0,0,0,0,0,0,0,0,0,0,0,0,0,0,0,0,0,0,0,0,0,0,0,0,0,0,0,0,0,0,0,0,0,0,0,1.3204,1.3205,0,1.3229,1.323,1.323,1.3223,1.3222,1.3222,1.3221,1.3246,1.3247,1.3248,0,0,0,0,0,0,0,0,0,0,0,0,0,1.315,1.3151,1.3204,1.3205,1.3205,1.3229,1.323,1.323,1.3223,1.3222,1.3222,1.3221,1.3245,1.3247,1.3248,0,0,0,0,0,0,0,0,0,0,0,0,0,1.3174,1.3151,1.3204,1.3204,1.3205,1.3229,1.323,1.323,1.3223,1.3222,1.3221,1.3221,1.3245,1.3247,1.3248,1.3274,0,0,1.3253,1.3254,0,0,0,0,0,0,0,0,1.3172,1.3176,1.3204,1.3204,1.3205,1.3222,1.3219,1.3245,1.3223,1.3216,1.3221,1.322,1.3238,1.3241,1.3247,1.3275,1.3276,1.3254,1.3255,1.3255,1.3256,0,0,0,0,0,0,0,1.3171,1.3175,1.3214,1.3204,1.3205,1.3203,1.3205,1.3224,1.3231,1.3216,1.3216,1.3219,1.3238,1.3245,1.3247,1.3277,1.3254,1.3255,1.3256,1.3257,1.3327,1.3328,0,0,0,0,0,0,1.3169,1.3173,1.3213,1.3215,1.3186,1.3204,1.3207,1.3217,1.3231,1.3232,1.322,1.3219,1.3243,1.3246,1.3248,1.3279,1.3255,1.3257,1.3258,1.3326,1.3327,1.3328,0,0,0,0,0,0,1.3168,1.3173,1.3212,1.3194,1.3199,1.3206,1.3217,1.3218,1.3225,1.3233,1.3235,1.3226,1.3242,1.3246,1.3268,1.328,1.3258,1.3259,1.3325,1.3326,1.3328,1.3342,0,0,0,0,0,0,1.3166,1.3172,1.3182,1.3194,1.32,1.3232,1.3218,1.3219,1.3228,1.3227,1.3239,1.324,1.3242,1.3265,1.3269,1.3282,1.3261,1.3324,1.3326,1.3327,1.334,1.3343,1.3346,0,0,0,0,0,1.3164,1.3185,1.3183,1.3188,1.3213,1.3232,1.3236,1.3237,1.3229,1.3239,1.3245,1.324,1.3278,1.3268,1.3272,1.3286,1.3323,1.3325,1.3327,1.3339,1.3343,1.3346,0,0,0,0,0,0,1.3174,1.3187,1.3184,1.321,1.322,1.3231,1.3244,1.3241,1.3254,1.3252,1.3254,1.3256,1.3279,1.3284,1.3272,1.3311,1.3299,1.3302,1.3307,1.3311,1.3313,1.3312,1.3262,0,0,0,0,0,1.3179,1.3195,1.3205,1.3226,1.3231,1.3237,1.3245,1.3246,1.3257,1.3261,1.3268,1.3278,1.3292,1.3302,1.3315,1.3341,1.3343,1.3352,1.3355,1.3358,1.336,1.3374,1.3378,1.3334,1.3334,1.3334,0,0,1.319,1.3199,1.3208,1.3228,1.3236,1.3252,1.3241,1.3257,1.3269,1.3263,1.3284,1.329,1.3301,1.3325,1.3336,1.333,1.3373,1.336,1.3362,1.3363,1.3376,1.3381,1.3384,1.3336,1.3335,1.3335,0,0,1.3218,1.3226,1.3245,1.3253,1.3266,1.3269,1.3274,1.3285,1.3289,1.331,1.3306,1.3319,1.3344,1.3352,1.336,1.339,1.3387,1.3395,1.341,1.3424,1.3427,1.343,1.3441,1.3445,1.3397,1.3397,1.3397,0,1.323,1.3253,1.3255,1.3272,1.3281,1.3277,1.3296,1.3303,1.332,1.3326,1.3319,1.335,1.3357,1.3383,1.339,1.3397,1.3402,1.3393,1.3426,1.343,1.3432,1.3443,1.3447,1.3398,1.3398,1.3398,1.3398,0,1.3267,1.3284,1.3297,1.3313,1.3324,1.3342,1.3346,1.3356,1.3355,1.3359,1.338,1.3389,1.3404,1.341,1.341,1.3436,1.3432,1.3426,1.3414,1.3437,1.3447,1.3451,1.3399,1.3399,1.3399,1.3399,0,0,1.3303,1.3319,1.3324,1.3331,1.3345,1.3357,1.3375,1.339,1.3399,1.341,1.3424,1.3445,1.3439,1.3448,1.3448,1.346,1.3484,1.3452,1.3453,1.3458,1.3513,1.3518,1.3522,1.3481,1.3482,1.3482,1.3512,0,1.3332,1.3363,1.3365,1.3393,1.3409,1.3404,1.342,1.3429,1.3433,1.3446,1.3451,1.3465,1.3457,1.3462,1.3473,1.3478,1.3495,1.3476,1.3495,1.3495,1.3492,1.3528,1.3533,1.356,1.3516,1.3517,1.3517,0,1.337,1.3383,1.3413,1.3424,1.343,1.3444,1.3458,1.3471,1.3481,1.3483,1.3493,1.3491,1.3509,1.3496,1.352,1.3508,1.3515,1.3519,1.352,1.3522,1.3508,1.3531,1.3569,1.3573,1.3523,1.3523,1.3522,0,1.3393,1.3418,1.3439,1.3445,1.3459,1.3468,1.3474,1.3484,1.3493,1.3505,1.3511,1.3524,1.3532,1.3542,1.3544,1.3535,1.3569,1.3556,1.3571,1.3571,1.3578,1.3578,1.3619,1.3583,1.3583,1.3582,1.3582,0,1.3426,1.3445,1.345,1.3463,1.3483,1.3485,1.3505,1.351,1.3519,1.3532,1.3529,1.3542,1.3544,1.3557,1.3558,1.3578,1.3582,1.3583,1.3584,1.3584,1.3584,1.3589,1.3587,1.3584,1.3583,1.3583,1.3583,0,1.3456,1.346,1.3482,1.3493,1.3496,1.3511,1.352,1.3532,1.3536,1.3553,1.3557,1.3563,1.3578,1.3581,1.3599,1.36,1.3623,1.3621,1.362,1.362,1.3634,1.3633,1.368,1.3686,1.3646,1.3646,1.3647,0,1.3476,1.3491,1.3503,1.3512,1.3519,1.3533,1.3542,1.3544,1.3554,1.3566,1.3577,1.3592,1.3604,1.3629,1.3634,1.3647,1.3646,1.3662,1.3648,1.3648,1.3646,1.3646,1.3647,1.3664,1.3665,1.3665,1.3665,0,1.3513,1.3514,1.3528,1.3542,1.3553,1.3564,1.3575,1.3582,1.3585,1.3596,1.3612,1.3621,1.3639,1.3654,1.3668,1.3673,1.367,1.367,1.3674,1.3674,1.3673,1.3674,1.3627,1.3669,1.3668,1.3668,1.3668,1.3668,1.3539,1.3552,1.3562,1.3577,1.3585,1.3595,1.3607,1.3612,1.3626,1.3641,1.3641,1.3658,1.3667,1.3685,1.3692,1.3705,1.37,1.3706,1.3707,1.3708,1.371,1.367,1.3707,1.3707,1.3707,1.3707,1.3707,0,1.3576,1.3582,1.3596,1.3611,1.3623,1.3619,1.363,1.364,1.3655,1.3665,1.3677,1.3694,1.3709,1.3715,1.3729,1.3738,1.3737,1.3741,1.3741,1.3742,1.3714,1.3709,1.3742,1.3742,1.3742,1.3742,1.3742,1.3742,1.3596,1.3617,1.362,1.3644,1.365,1.3668,1.3674,1.3683,1.3691,1.3711,1.3723,1.3727,1.3735,1.3749,1.3762,1.3763,1.3768,1.3774,1.3774,1.3748,1.3744,1.3741,1.3736,1.3775,1.3775,1.3802,1.3802,1.3802]},{"header":{"parameterUnit":"m.s-1","parameterCategory":1,"la1":30.2991,"la2":30.254,"lo1":-89.0895,"lo2":-89.0444,"dy":0.0017,"dx":0.0017,"nx":28,"ny":28,"refTime":"2025-03-24T21:00:00:Z","depth":0,"parameterNumber":3,"parameterNumberName":"V-component_of_WINDS"},"data":[0,0,0,0,0,0,0,0,0,0,0,0,0,0,0,0,0,0,0,0,0,0,0,0,0,0,0,0,0,0,0,0,0,0,0,0,0,0,0,0,0,0,0,0,0,0,0,0,0,0,0,0,0,0,0,0,0,0,0.1047,0.1048,0,0.1126,0.1127,0.1128,0.1089,0.1087,0.1085,0.1083,0.1162,0.1166,0.117,0,0,0,0,0,0,0,0,0,0,0,0,0,0.0858,0.0861,0.1047,0.1048,0.1049,0.1126,0.1127,0.1128,0.1089,0.1087,0.1084,0.1082,0.1161,0.1165,0.117,0,0,0,0,0,0,0,0,0,0,0,0,0,0.0939,0.0863,0.1047,0.1039,0.1039,0.1126,0.1127,0.1129,0.109,0.1086,0.1083,0.108,0.1159,0.1165,0.1171,0.127,0,0,0.1189,0.1192,0,0,0,0,0,0,0,0,0.0934,0.0946,0.1039,0.104,0.104,0.1095,0.1089,0.1176,0.109,0.107,0.1083,0.1079,0.1142,0.1149,0.1171,0.1274,0.1277,0.119,0.1194,0.1196,0.1198,0,0,0,0,0,0,0,0.0929,0.0942,0.1078,0.104,0.1041,0.103,0.1038,0.1106,0.1122,0.1072,0.1069,0.1079,0.1141,0.1165,0.1172,0.1278,0.119,0.1195,0.1199,0.1201,0.1462,0.1465,0,0,0,0,0,0,0.0924,0.0938,0.1076,0.1081,0.0978,0.1036,0.1045,0.108,0.1122,0.1125,0.1082,0.1077,0.1156,0.1165,0.1175,0.129,0.1196,0.1202,0.1205,0.1458,0.1462,0.1466,0,0,0,0,0,0,0.092,0.0937,0.1073,0.1009,0.1025,0.1042,0.1082,0.1083,0.1107,0.1129,0.1131,0.1103,0.1154,0.1166,0.1246,0.1293,0.1204,0.121,0.1455,0.146,0.1464,0.1525,0,0,0,0,0,0,0.0915,0.0935,0.0975,0.101,0.1029,0.1144,0.1085,0.1087,0.1117,0.1112,0.115,0.1153,0.1153,0.1237,0.1252,0.13,0.1215,0.145,0.1457,0.1463,0.1518,0.1531,0.1542,0,0,0,0,0,0.0908,0.0989,0.0977,0.0994,0.1078,0.1147,0.1157,0.1156,0.1122,0.116,0.1173,0.1152,0.1286,0.1245,0.1262,0.1312,0.1447,0.1455,0.1462,0.1513,0.1528,0.1541,0,0,0,0,0,0,0.0959,0.0994,0.098,0.1076,0.1108,0.114,0.1189,0.1173,0.1216,0.1209,0.1205,0.1214,0.1295,0.1312,0.1266,0.1408,0.1361,0.1372,0.1394,0.1409,0.142,0.1414,0.122,0,0,0,0,0,0.0982,0.1036,0.1062,0.1143,0.116,0.1172,0.1202,0.1197,0.1231,0.1245,0.1264,0.1297,0.1346,0.1379,0.1425,0.1521,0.1526,0.1563,0.1575,0.1584,0.1593,0.1641,0.1656,0.149,0.149,0.149,0,0,0.1029,0.1054,0.1088,0.1154,0.1179,0.1233,0.1184,0.1244,0.1283,0.1254,0.1329,0.1344,0.138,0.1467,0.1507,0.1484,0.164,0.1594,0.1601,0.1605,0.165,0.1666,0.168,0.1495,0.1494,0.1494,0,0,0.1141,0.1167,0.1235,0.1261,0.1299,0.1305,0.1322,0.1355,0.1364,0.1439,0.1417,0.1463,0.1549,0.1574,0.1598,0.1716,0.1696,0.1732,0.1792,0.1838,0.1851,0.1863,0.1902,0.1916,0.1741,0.1741,0.1741,0,0.1194,0.1275,0.1273,0.1333,0.1361,0.1337,0.1404,0.1429,0.1481,0.15,0.1473,0.1577,0.16,0.1691,0.1719,0.1741,0.1757,0.1727,0.185,0.1861,0.1872,0.1909,0.1924,0.1745,0.1744,0.1744,0.1744,0,0.1337,0.1394,0.1444,0.1493,0.1527,0.1592,0.1596,0.1631,0.1623,0.1631,0.1706,0.1732,0.1782,0.1803,0.1797,0.1892,0.1876,0.185,0.1803,0.1892,0.1926,0.1941,0.175,0.1749,0.1748,0.1747,0,0,0.1485,0.153,0.1548,0.1568,0.1607,0.165,0.1711,0.1759,0.1787,0.1823,0.1873,0.1944,0.1919,0.1946,0.1942,0.1983,0.207,0.1952,0.1952,0.197,0.2173,0.219,0.2207,0.2058,0.2061,0.2063,0.2168,0,0.1598,0.1706,0.1703,0.1803,0.1853,0.1829,0.1881,0.191,0.1919,0.1961,0.197,0.202,0.1985,0.2001,0.204,0.2052,0.2111,0.2044,0.2102,0.2104,0.2091,0.2225,0.2245,0.2343,0.2182,0.2185,0.2186,0,0.1745,0.1783,0.1888,0.1915,0.1936,0.1984,0.2026,0.2068,0.2098,0.2101,0.213,0.2118,0.2178,0.2129,0.221,0.2164,0.2188,0.2196,0.22,0.2204,0.2149,0.223,0.2375,0.2389,0.2208,0.2206,0.2205,0,0.1838,0.1917,0.1988,0.2007,0.2042,0.2075,0.2091,0.2118,0.2146,0.2182,0.22,0.2243,0.2266,0.2299,0.2298,0.2263,0.2378,0.233,0.238,0.238,0.2404,0.2402,0.2552,0.2423,0.2423,0.2423,0.2422,0,0.1963,0.2027,0.203,0.2074,0.2144,0.2139,0.2208,0.222,0.2244,0.2288,0.227,0.2312,0.2309,0.2351,0.235,0.2415,0.2426,0.2428,0.2427,0.2429,0.2428,0.2443,0.2435,0.2427,0.2426,0.2425,0.2424,0,0.2079,0.2084,0.216,0.2186,0.2193,0.2243,0.2265,0.2305,0.2311,0.2367,0.238,0.2389,0.2437,0.2439,0.2495,0.2494,0.2571,0.2564,0.2561,0.2559,0.2607,0.2601,0.277,0.279,0.265,0.2652,0.2653,0,0.2158,0.2206,0.2236,0.2264,0.2281,0.2328,0.2355,0.2352,0.2381,0.2417,0.2452,0.2498,0.2534,0.261,0.2621,0.2662,0.2654,0.271,0.266,0.2658,0.2651,0.2647,0.265,0.2719,0.2721,0.2722,0.2723,0,0.2295,0.2294,0.2335,0.2376,0.2409,0.2441,0.2471,0.2495,0.2494,0.2528,0.2575,0.2603,0.2658,0.2702,0.2742,0.2756,0.2739,0.2739,0.2752,0.2753,0.2748,0.2748,0.2585,0.2734,0.2733,0.2732,0.2732,0.2731,0.2393,0.2433,0.2459,0.2504,0.2526,0.2553,0.2591,0.2601,0.2641,0.2685,0.268,0.2733,0.2758,0.2809,0.2826,0.2866,0.2846,0.2866,0.2871,0.2875,0.2878,0.2743,0.2873,0.2873,0.2873,0.2872,0.2872,0,0.2526,0.2541,0.2583,0.2624,0.2658,0.2639,0.267,0.27,0.2746,0.2771,0.2806,0.2859,0.2901,0.2915,0.2955,0.2983,0.2976,0.2994,0.299,0.2993,0.2895,0.2878,0.2999,0.2999,0.2999,0.2999,0.2999,0.2999,0.26,0.2665,0.2667,0.2742,0.2756,0.2807,0.2826,0.285,0.287,0.2929,0.2964,0.2972,0.2992,0.3033,0.3069,0.3072,0.3086,0.3107,0.3106,0.3013,0.3001,0.2988,0.2972,0.3111,0.3111,0.32,0.3201,0.3201]}]]